EW3530 Weather Reports


time (UTC)temp
C
wind
direction
speed
KPH
gust
KPH
rain 1hr
cm
rain 24hr
cm
rain mn
cm
humidity
%
barometer
mb
20260503050410 2 122 0.0 1.6 0.00 0.00 0.00 78 1020.6
20260503045908 2 120 1.6 1.6 0.00 0.00 0.00 78 1020.7
20260503045405 2 107 1.6 1.6 0.00 0.00 0.00 77 1020.7
20260503044902 2 114 1.6 3.2 0.00 0.00 0.00 77 1020.7
20260503044359 2 100 1.6 1.6 0.00 0.00 0.00 77 1020.6
20260503043856 2 98 1.6 3.2 0.00 0.00 0.00 77 1020.7
20260503043353 2 113 3.2 3.2 0.00 0.00 0.00 76 1020.9
20260503042849 2 132 3.2 3.2 0.00 0.00 0.00 76 1020.7
20260503042346 2 95 1.6 1.6 0.00 0.00 0.00 76 1020.9
20260503041842 2 106 1.6 3.2 0.00 0.00 0.00 76 1020.9
20260503041339 2 125 1.6 3.2 0.00 0.00 0.00 77 1021.0
20260503040837 2 112 1.6 1.6 0.00 0.00 0.00 76 1020.9
20260503040334 2 126 3.2 3.2 0.00 0.00 0.00 76 1021.1
20260503035831 2 107 0.0 0.0 0.00 0.30 0.30 74 1021.0
20260503035328 2 117 1.6 1.6 0.00 0.30 0.30 74 1020.9
20260503034826 2 123 1.6 3.2 0.00 0.30 0.30 74 1021.2
20260503034323 3 122 1.6 3.2 0.00 0.30 0.30 75 1020.9
20260503033820 3 116 0.0 1.6 0.00 0.30 0.30 73 1021.2
20260503033317 3 83 1.6 1.6 0.00 0.30 0.30 73 1021.0
20260503032815 3 103 1.6 1.6 0.00 0.30 0.30 72 1021.0
20260503032314 3 111 0.0 0.0 0.00 0.30 0.30 72 1021.1
20260503031811 3 113 1.6 3.2 0.00 0.30 0.30 73 1021.3
20260503031309 3 109 1.6 1.6 0.00 0.30 0.30 71 1021.3
20260503030805 3 108 1.6 1.6 0.00 0.30 0.30 70 1021.2
20260503030301 4 117 0.0 1.6 0.00 0.30 0.30 67 1021.3
20260503025758 5 99 0.0 0.0 0.00 0.30 0.30 65 1021.3
20260503025256 5 89 0.0 0.0 0.00 0.30 0.30 64 1021.3
20260503024752 5 93 1.6 1.6 0.00 0.30 0.30 63 1021.5
20260503024249 5 91 1.6 3.2 0.00 0.30 0.30 63 1021.1
20260503023746 5 50 1.6 1.6 0.00 0.30 0.30 63 1021.6
20260503023243 5 94 1.6 3.2 0.00 0.30 0.30 62 1021.2
20260503022739 5 282 4.8 8.0 0.00 0.30 0.30 63 1021.4
20260503022234 5 276 3.2 3.2 0.00 0.30 0.30 62 1021.5
20260503021731 5 72 3.2 3.2 0.00 0.30 0.30 61 1021.4
20260503021227 5 352 6.4 8.0 0.00 0.30 0.30 60 1021.4
20260503020725 5 348 3.2 3.2 0.00 0.30 0.30 60 1021.6
20260503020222 6 295 4.8 4.8 0.00 0.30 0.30 59 1021.5
20260503015719 6 4 4.8 8.0 0.00 0.30 0.30 59 1021.8
20260503015216 6 302 3.2 3.2 0.00 0.30 0.30 59 1021.4
20260503014711 6 43 3.2 3.2 0.00 0.30 0.30 58 1021.7
20260503014210 6 293 4.8 8.0 0.00 0.30 0.30 58 1021.5
20260503013706 6 47 3.2 3.2 0.00 0.30 0.30 57 1021.5
20260503013204 6 53 1.6 3.2 0.00 0.30 0.30 58 1021.6
20260503012702 6 77 1.6 1.6 0.00 0.30 0.30 56 1021.6
20260503012158 6 309 4.8 4.8 0.00 0.30 0.30 56 1021.5
20260503011654 6 54 3.2 3.2 0.00 0.30 0.30 55 1021.6
20260503011152 6 95 1.6 3.2 0.00 0.30 0.30 55 1021.3
20260503010647 6 78 3.2 3.2 0.00 0.30 0.30 53 1021.4
20260503010145 7 282 4.8 4.8 0.00 0.30 0.30 52 1021.6
20260503005642 7 275 6.4 9.7 0.00 0.30 0.30 52 1021.3
20260503005139 7 345 4.8 4.8 0.00 0.30 0.30 51 1021.4
20260503004636 7 53 4.8 4.8 0.00 0.30 0.30 50 1021.4
20260503004134 7 67 4.8 8.0 0.00 0.30 0.30 51 1021.3
20260503003631 7 286 8.0 9.7 0.00 0.30 0.30 50 1021.2
20260503003128 7 66 3.2 3.2 0.00 0.30 0.30 50 1021.1
20260503002625 7 333 8.0 11.3 0.00 0.30 0.30 49 1021.0
20260503002122 7 4 8.0 11.3 0.00 0.30 0.30 49 1020.7
20260503001618 7 289 8.0 12.9 0.00 0.30 0.30 49 1020.7
20260503001115 8 11 12.9 17.7 0.00 0.30 0.30 48 1020.7
20260503000612 8 307 11.3 14.5 0.00 0.30 0.30 48 1020.7
20260503000109 8 352 12.9 17.7 0.00 0.30 0.30 47 1020.7
20260502235606 8 37 3.2 3.2 0.00 0.30 0.30 48 1020.6
20260502235104 8 304 9.7 11.3 0.00 0.30 0.30 47 1020.7
20260502234559 8 354 3.2 8.0 0.00 0.30 0.30 48 1020.6
20260502234058 8 285 9.7 12.9 0.00 0.30 0.30 46 1020.6
20260502233557 8 61 8.0 9.7 0.00 0.30 0.30 45 1020.6
20260502233055 8 275 8.0 11.3 0.00 0.30 0.30 45 1020.3
20260502232551 9 355 8.0 11.3 0.00 0.30 0.30 45 1020.4
20260502232049 9 121 8.0 11.3 0.00 0.30 0.30 45 1020.5
20260502231545 9 343 12.9 17.7 0.00 0.30 0.30 43 1020.2
20260502231043 10 327 11.3 16.1 0.00 0.30 0.30 44 1020.2
20260502230541 10 64 8.0 9.7 0.00 0.30 0.30 44 1020.2
20260502230039 10 329 9.7 12.9 0.00 0.30 0.30 45 1020.2
20260502225534 10 340 17.7 22.5 0.00 0.30 0.30 43 1020.1
20260502225032 10 269 6.4 8.0 0.00 0.30 0.30 43 1020.1
20260502224528 10 54 6.4 8.0 0.00 0.30 0.30 43 1020.0
20260502224025 10 333 8.0 16.1 0.00 0.30 0.30 43 1019.9
20260502223523 10 317 14.5 20.9 0.00 0.30 0.30 41 1019.8
20260502223021 10 324 14.5 20.9 0.00 0.30 0.30 42 1019.9
20260502222518 10 340 11.3 17.7 0.00 0.30 0.30 41 1019.9
20260502222014 10 315 11.3 12.9 0.00 0.30 0.30 41 1019.8
20260502221510 10 327 12.9 14.5 0.00 0.30 0.30 39 1019.7
20260502221008 10 341 11.3 12.9 0.00 0.30 0.30 40 1019.5
20260502220503 10 358 6.4 8.0 0.00 0.30 0.30 41 1019.8
20260502220000 11 274 4.8 8.0 0.00 0.30 0.30 42 1019.8
20260502215457 11 349 6.4 9.7 0.00 0.30 0.30 41 1019.6
20260502214954 11 343 8.0 9.7 0.00 0.30 0.30 41 1019.6
20260502214451 11 10 4.8 4.8 0.00 0.30 0.30 41 1019.5
20260502213948 11 294 11.3 14.5 0.00 0.30 0.30 40 1019.6
20260502213445 11 170 9.7 11.3 0.00 0.30 0.30 41 1019.6
20260502212943 11 290 8.0 9.7 0.00 0.30 0.30 41 1019.5
20260502212442 11 288 16.1 24.1 0.00 0.30 0.30 39 1019.6
20260502211939 11 282 6.4 8.0 0.00 0.30 0.30 40 1019.6
20260502211434 11 23 8.0 11.3 0.00 0.30 0.30 40 1019.6
20260502210932 11 270 6.4 8.0 0.00 0.30 0.30 42 1019.7
20260502210428 11 297 20.9 27.4 0.00 0.30 0.30 39 1019.7
20260502205926 11 353 8.0 11.3 0.00 0.30 0.30 41 1019.6
20260502205422 11 2 6.4 11.3 0.00 0.30 0.30 41 1019.5
20260502204919 11 335 12.9 16.1 0.00 0.30 0.30 38 1019.5
20260502204416 12 349 8.0 11.3 0.00 0.30 0.30 41 1019.5
20260502203914 11 295 11.3 12.9 0.00 0.30 0.30 38 1019.6
20260502203411 11 338 9.7 12.9 0.00 0.30 0.30 41 1019.6
20260502202907 11 289 16.1 20.9 0.00 0.30 0.30 39 1019.7
20260502202404 11 312 14.5 16.1 0.00 0.30 0.30 41 1019.7
20260502201902 11 341 17.7 20.9 0.00 0.30 0.30 39 1019.8
20260502201358 11 79 12.9 20.9 0.00 0.30 0.30 40 1019.8
20260502200855 11 14 14.5 16.1 0.00 0.30 0.30 41 1019.7
20260502200350 11 280 9.7 12.9 0.00 0.30 0.30 42 1019.8
20260502195848 11 267 17.7 24.1 0.00 0.30 0.30 43 1019.7
20260502195344 11 250 9.7 12.9 0.00 0.30 0.30 42 1020.0
20260502194841 11 303 8.0 14.5 0.00 0.30 0.30 44 1020.0
20260502194338 11 276 16.1 16.1 0.00 0.30 0.30 41 1019.8
20260502193834 12 318 17.7 22.5 0.00 0.30 0.30 40 1020.0
20260502193331 11 354 8.0 11.3 0.00 0.30 0.30 45 1019.9
20260502192827 12 270 17.7 25.7 0.00 0.30 0.30 40 1020.0
20260502192324 11 15 11.3 12.9 0.00 0.30 0.30 41 1020.2
20260502191821 11 274 12.9 17.7 0.00 0.30 0.30 39 1020.1
20260502191319 11 287 8.0 12.9 0.00 0.30 0.30 42 1020.0
20260502190816 12 283 11.3 14.5 0.00 0.30 0.30 43 1020.2
20260502190314 12 299 11.3 14.5 0.00 0.30 0.30 45 1020.0
20260502185809 11 42 9.7 11.3 0.00 0.30 0.30 47 1020.1
20260502185305 11 306 11.3 14.5 0.00 0.30 0.30 45 1020.2
20260502184802 11 344 12.9 14.5 0.00 0.30 0.30 47 1020.1
20260502184257 12 309 9.7 16.1 0.00 0.30 0.30 50 1020.1
20260502183754 11 275 16.1 24.1 0.00 0.30 0.30 47 1020.0
20260502183250 12 289 11.3 12.9 0.00 0.30 0.30 49 1020.0
20260502182745 12 275 11.3 14.5 0.00 0.30 0.30 45 1020.0
20260502182241 12 354 9.7 12.9 0.00 0.30 0.30 52 1019.9
20260502181738 12 334 8.0 11.3 0.00 0.30 0.30 50 1020.0
20260502181237 12 61 6.4 8.0 0.00 0.30 0.30 51 1019.9
20260502180733 12 303 8.0 9.7 0.00 0.30 0.30 50 1020.1
20260502180231 11 298 8.0 9.7 0.00 0.30 0.30 53 1019.9
20260502170150 10 38 4.8 4.8 0.00 0.30 0.30 59 1020.3
20260502164136 11 330 8.0 9.7 0.00 0.30 0.30 56 1020.5
20260502163632 10 68 4.8 4.8 0.00 0.30 0.30 59 1020.6
20260502163129 10 46 4.8 4.8 0.00 0.30 0.30 60 1020.6
20260502162626 10 23 4.8 4.8 0.00 0.30 0.30 62 1020.7
20260502162123 10 323 6.4 8.0 0.00 0.30 0.30 60 1021.0
20260502161620 10 357 4.8 4.8 0.00 0.30 0.30 59 1021.0
20260502161117 9 305 9.7 11.3 0.00 0.30 0.30 61 1021.0
20260502160615 9 348 8.0 11.3 0.00 0.30 0.30 63 1020.9
20260502160114 8 324 9.7 11.3 0.00 0.30 0.30 65 1020.9
20260502152028 8 292 9.7 12.9 0.00 0.30 0.30 64 1021.0
20260502151525 8 251 12.9 14.5 0.00 0.30 0.30 68 1021.2
20260502151022 8 344 9.7 11.3 0.00 0.30 0.30 68 1020.9
20260502150520 8 198 3.2 4.8 0.00 0.30 0.30 69 1021.2
20260502130358 6 326 3.2 3.2 0.00 0.30 0.30 88 1021.1
20260502123341 5 46 1.6 3.2 0.00 0.30 0.30 92 1021.2
20260502122838 5 293 4.8 4.8 0.00 0.30 0.30 93 1021.3
20260502122334 5 35 3.2 3.2 0.00 0.30 0.30 93 1021.1
20260502121833 5 66 1.6 1.6 0.00 0.30 0.30 93 1021.3
20260502121330 5 320 1.6 1.6 0.00 0.30 0.30 94 1021.2
20260502120827 5 315 1.6 3.2 0.00 0.30 0.30 94 1021.1
20260502120323 5 260 1.6 1.6 0.00 0.30 0.30 94 1021.0
20260502115821 5 62 3.2 3.2 0.00 0.30 0.30 95 1021.0
20260502115318 5 303 3.2 3.2 0.00 0.30 0.30 95 1021.0
20260502114814 5 326 4.8 4.8 0.00 0.30 0.30 95 1021.1
20260502114311 5 50 3.2 3.2 0.00 0.30 0.30 96 1020.7
20260502113808 5 61 4.8 4.8 0.00 0.30 0.30 97 1021.1
20260502113306 5 69 3.2 3.2 0.00 0.30 0.30 97 1020.9
20260502112803 5 287 4.8 4.8 0.00 0.30 0.30 97 1020.5
20260502112301 5 320 4.8 4.8 0.00 0.30 0.30 98 1020.5
20260502111758 5 311 1.6 1.6 0.00 0.30 0.30 98 1020.7
20260502111255 5 358 6.4 9.7 0.00 0.30 0.30 98 1020.5
20260502110753 5 288 3.2 3.2 0.00 0.30 0.30 98 1021.0
20260502110250 5 352 3.2 3.2 0.00 0.30 0.30 98 1020.6
20260502105748 5 283 3.2 3.2 0.00 0.30 0.30 98 1020.6
20260502105244 5 337 6.4 9.7 0.00 0.30 0.30 98 1020.5
20260502104742 5 116 1.6 3.2 0.00 0.30 0.30 98 1020.3
20260502104239 5 181 4.8 4.8 0.00 0.30 0.30 98 1020.4
20260502103737 5 1 4.8 4.8 0.00 0.30 0.30 98 1020.3
20260502103234 5 68 3.2 3.2 0.00 0.30 0.30 98 1020.2
20260502102731 5 223 3.2 3.2 0.00 0.30 0.30 98 1020.0
20260502102227 5 75 1.6 1.6 0.00 0.30 0.30 98 1020.1
20260502101726 5 82 4.8 4.8 0.18 0.30 0.30 98 1020.2
20260502101224 5 84 4.8 4.8 0.48 0.30 0.30 98 1019.9
20260502100721 5 53 4.8 4.8 0.48 0.28 0.28 98 1019.9
20260502100220 6 325 11.3 12.9 0.36 0.25 0.25 98 1020.2
20260502091154 7 124 1.6 1.6 0.00 0.20 0.20 98 1019.7
20260502090651 7 124 1.6 1.6 0.00 0.20 0.20 98 1019.6
20260502090148 7 120 0.0 0.0 0.00 0.20 0.20 98 1019.5
20260502080110 7 117 1.6 1.6 0.00 0.20 0.20 98 1019.7
20260502071043 7 116 1.6 1.6 0.00 0.20 0.20 98 1020.0
20260502070541 7 122 1.6 1.6 0.00 0.20 0.20 98 1019.9
20260502070039 7 115 0.0 0.0 0.00 0.20 0.20 98 1019.9
20260502065538 7 109 0.0 0.0 0.00 0.20 0.20 98 1019.9
20260502065035 7 110 1.6 3.2 0.00 0.20 0.20 98 1019.9
20260502064533 7 116 1.6 1.6 0.00 0.20 0.20 98 1019.9
20260502064030 7 115 1.6 1.6 0.00 0.20 0.20 98 1020.0
20260502063527 7 116 1.6 1.6 0.00 0.20 0.20 98 1020.0
20260502063020 7 112 1.6 1.6 0.13 0.20 0.20 97 1019.8
20260502062516 7 115 0.0 0.0 0.13 0.20 0.20 97 1019.9
20260502062015 7 127 1.6 1.6 0.00 0.18 0.18 97 1019.9
20260502061512 7 105 0.0 1.6 0.00 0.18 0.18 97 1019.9
20260502061009 7 118 1.6 1.6 0.18 0.18 0.18 97 1019.9
20260502060504 7 106 1.6 1.6 0.18 0.18 0.18 97 1020.2
20260502060001 7 113 0.0 0.0 0.00 0.15 0.15 97 1020.4
20260502055458 7 108 0.0 0.0 0.00 0.15 0.15 97 1020.2
20260502054952 7 112 0.0 0.0 0.00 0.15 0.15 97 1020.2
20260502054449 7 116 1.6 1.6 0.00 0.15 0.15 97 1020.2
20260502053946 7 97 1.6 3.2 0.00 0.15 0.15 97 1020.0
20260502053443 7 84 0.0 1.6 0.00 0.15 0.15 97 1019.7
20260502052941 7 95 0.0 0.0 0.00 0.15 0.15 97 1020.1
20260502052439 7 97 0.0 0.0 0.00 0.15 0.15 97 1020.5
20260502051937 7 99 1.6 1.6 0.00 0.15 0.15 97 1020.3
20260502051435 7 130 1.6 3.2 0.00 0.15 0.15 97 1020.6
20260502050932 7 119 1.6 1.6 0.13 0.15 0.15 97 1020.6